STARLINK-1676 (46556 NORAD) Tracking and Keplerian Element Data

This shows tracking and keplerian element data for the satellite.

Feedback or suggestion? Click here.




ElementValue
Catalog46556
NameSTARLINK-1676
Epoch Orbit179
Epoch Day335.91670139
Epoch Year2020
RAAN177.2527
Inclination53.0021
Eccentricity0.0001714
Argument of Perigee69.6653
Mean Anonmoly248.5771
Mean Motion15.0558477
Decay Rate0.00010377
L11 46556U 20070AA 20335.91670139 .00010377 00000-0 73020-3 0 9997
L22 46556 53.0021 177.2527 0001714 69.6653 248.5771 15.05584770 1791

Live tracking and technical data element details for STARLINK-1676 (NORAD 46556). STARLINK-1676 can be tracked NOW for your location showing map with azimuth and elevation plus other details from your city location.

Track the satellite on the map from your city or location and see movement details for azimuth, elevation, latitude, longitude, range, height, and movement on the map or in text.







IsCatalogInMostPopularTable: catalog: 46556, numindb: 14
Update: records affected: 1



GetName: 46556 STARLINK-1676

Hit Count: updated at: Tue, 01 Dec 2020 21:23:56 GMT